Regional Weather Roundup
Issued by NWS Sioux Falls, SD

Home | Current Version | Previous Version | Text Only | Print | Product List | Glossary Off
Versions: 1 2 3 4 5 6 7 8 9 10 11 12 13 14 15 16 17 18 19 20 21 22 23 24 25 26 27 28 29 30 31 32 33 34 35 36 37 38 39 40 41 42 43 44 45 46 47 48 49 50

000
ASUS43 KFSD 201602
RWRFSD

WEATHER ROUNDUP FOR SE SOUTH DAKOTA/SW MINNESOTA/NW IOWA
NATIONAL WEATHER SERVICE SIOUX FALLS SD
1100 AM CDT SUN AUG 20 2017

NOTE: "FAIR" INDICATES FEW OR NO CLOUDS BELOW 12,000 FEET WITH NO
SIGNIFICANT WEATHER AND OR OBSTRUCTIONS TO VISIBILITY.


SDZ038>040-050-052>070-201700-
SOUTHEAST SOUTH DAKOTA

CITY           SKY/WX    TMP DP  RH WIND       PRES   REMARKS
BROOKINGS      SUNNY     72  60  66 NE8       29.98R
CHAMBERLAIN    SUNNY     76  58  55 NE12G20   29.99F
HURON          MOSUNNY   71  59  65 N15       30.01R
MADISON        FAIR      72  72 100 E13       29.97S
MITCHELL       PTSUNNY   72  66  81 N10       29.99R
SIOUX FALLS    MOSUNNY   78  68  71 NE7       29.96R
WINNER         FAIR      75  61  61 NE15      30.00S
YANKTON        SUNNY     77  67  71 SE6       29.97R
$$

MNZ071-072-080-081-089-090-097-098-201700-
SOUTHWEST MINNESOTA

CITY           SKY/WX    TMP DP  RH WIND       PRES   REMARKS
FAIRMONT       SUNNY     76  65  68 SW9       29.98R
JACKSON        SUNNY     75  64  69 CALM      29.99R
LUVERNE        SUNNY     73  63  68 CALM      29.98R
MARSHALL       SUNNY     71  63  75 N12       29.98R
MONTEVIDEO     PTSUNNY   72  64  78 N9        29.97R
PIPESTONE      SUNNY     75  66  73 E7        29.98S
REDWOOD FALLS  CLOUDY    74  66  76 W6        29.95R
TRACY          SUNNY     73  66  80 N9        29.98R
WINDOM         SUNNY     77  64  65 CALM      29.98R
WORTHINGTON    SUNNY     76  65  68 W5        29.99
$$

IAZ001>003-012>014-020>022-031-032-NEZ013-014-SDZ071-201700-
NORTHWEST IOWA

CITY           SKY/WX    TMP DP  RH WIND       PRES   REMARKS
CHEROKEE       PTSUNNY   78  65  63 CALM      29.97F
DENISON        CLOUDY    77  66  69 CALM      30.00R
ESTHERVILLE    SUNNY     76  66  71 SW7       29.97R
ORANGE CITY    SUNNY     77  66  69 SE5       29.97S
SHELDON        SUNNY     77  64  65 S8        29.96S
SIOUX CITY     SUNNY     76  67  73 SE14      29.96S
SPENCER        SUNNY     78  64  61 SW8       29.98R
STORM LAKE     SUNNY     77  66  69 SW8       29.99S
$$

ABBREVIATIONS USED IN REMARKS
   TC - TEMPERATURE IN CELSIUS
  WCI - WIND CHILL INDEX
   HX - HEAT INDEX
  VSB - VISIBILITY




USA.gov is the U.S. government's official web portal to all federal, state and local government web resources and services.